Weather History for FBMN - November, 2012

Change the Weather History Date:

Thursday, November 1, 2012

  Actual Average Record
Temperature  
Mean Temperature 82 °F -  
Max Temperature 96 °F 91 °F 102 °F (1996)
Min Temperature 69 °F 69 °F 64 °F (2002)
Cooling Degree Days 18    
Growing Degree Days 32 (Base 50)    
Moisture  
Dew Point 54 °F    
Average Humidity 37    
Maximum Humidity 60    
Minimum Humidity 16    
Precipitation  
Precipitation 0.00 in - - ()
Sea Level Pressure  
Sea Level Pressure 29.93 in    
Wind  
Wind Speed 10 mph ()    
Max Wind Speed 21 mph    
Max Gust Speed -    
Visibility 6.0 miles    
Events      
Averages and records for this station are not official NWS values.
T = Trace of Precipitation, MM = Missing Value Source: Averaged Metar Reports

Daily Weather History Graph

Daily Weather History Graph

Search for Another Location

Airport or City:

Trip Planner

Search our weather history database for the weather conditions in past years. The results will help you decide how hot, cold, wet, or windy it might be!

Date:

Astronomy

Nov. 01, 2012 Rise Set
Actual Time 5:44 AM CAT 6:35 PM CAT
Civil Twilight 5:21 AM CAT 6:58 PM CAT
Nautical Twilight 4:54 AM CAT 7:25 PM CAT
Astronomical Twilight 4:27 AM CAT 7:53 PM CAT
Moon 8:54 PM CAT (11/1) 7:25 AM CAT (11/1)
Length of Visible Light 13h 36m
Length of Day
12h 50m
Waning Gibbous, 94% of the Moon is Illuminated
Nov 1
Waning Gibbous
Nov 7
Last Quarter
Nov 14
New
Nov 20
First Quarter
Nov 28
Full

Hourly Weather History & Observations

Time (CAT) Temp. Heat Index Dew Point Humidity Pressure Visibility Wind Dir Wind Speed Gust Speed Precip Events Conditions
12:00 AM 80.6 °F - 50.0 °F 34% 29.89 in - SSE 6.9 mph - N/A   Clear
1:00 AM 78.8 °F - 48.2 °F 34% 29.89 in - SSE 9.2 mph - N/A   Clear
2:00 AM 76 °F - 48 °F 26%  in 6 mi SSE 6.9 mph - -   Scattered Clouds
2:00 AM 77.0 °F - 48.2 °F 36% 29.89 in - SSE 6.9 mph - N/A   Clear
3:00 AM 75.2 °F - 51.8 °F 44% 29.89 in - ESE 9.2 mph - N/A   Clear
4:00 AM 75.2 °F - 51.8 °F 44% 29.89 in - ESE 11.5 mph - N/A   Clear
5:00 AM 73.4 °F - 57.2 °F 57% 29.92 in - ESE 12.7 mph - N/A   Clear
6:00 AM 71.6 °F - 57.2 °F 60% 29.95 in - ESE 11.5 mph - N/A   Clear
7:00 AM 73.4 °F - 57.2 °F 57% 29.95 in - ESE 18.4 mph - N/A   Clear
8:00 AM 76 °F - 58 °F 44%  in 6 mi ESE 20.7 mph - -   Partly Cloudy
8:00 AM 77.0 °F - 59.0 °F 54% 29.98 in - East 20.7 mph - N/A   Clear
9:00 AM 80.6 °F 81.1 °F 59.0 °F 48% 29.98 in - East 17.3 mph - N/A   Clear
10:00 AM 84.2 °F 83.8 °F 59.0 °F 42% 29.98 in - North - - N/A   Clear
11:00 AM 87.8 °F 87.6 °F 60.8 °F 40% 29.98 in - North - - N/A   Clear
12:00 PM 89.6 °F 88.1 °F 57.2 °F 33% 29.95 in - North - - N/A   Clear
1:00 PM 93.2 °F 91.3 °F 55.4 °F 28% 29.92 in - North - - N/A   Partly Cloudy
2:00 PM 95 °F - 54 °F 16%  in 6 mi Calm Calm - -   Scattered Clouds
2:00 PM 95.0 °F 92.7 °F 53.6 °F 25% 29.92 in - North - - N/A   Partly Cloudy
3:00 PM 95.0 °F 92.7 °F 53.6 °F 25% 29.89 in - North - - N/A   Partly Cloudy
4:00 PM 96.8 °F 95.1 °F 55.4 °F 25% 29.86 in - North - - N/A   Partly Cloudy
5:00 PM 91.4 °F 89.1 °F 53.6 °F 28% 29.89 in - North - - N/A   Partly Cloudy
6:00 PM 91.4 °F 89.1 °F 53.6 °F 28% 29.89 in - North - - N/A   Partly Cloudy
7:00 PM 86.0 °F 84.2 °F 53.6 °F 33% 29.92 in - SE 13.8 mph - N/A   Clear
8:00 PM 87.8 °F - 48.2 °F 25% 29.95 in - SE 10.4 mph - N/A   Clear
11:00 PM 82.4 °F 81.4 °F 53.6 °F 37% 30.01 in - ESE 17.3 mph - N/A   Clear